{"data":{"norad_id":56538,"intl_designator":"2023-065AM","name":"STARLINK-6314","alt_names":[],"object_type":"PAYLOAD","status":"ACTIVE","operator":null,"country":"US","launch_date":"2023-05-14","launch_site_code":"AFETR","launch_vehicle":null,"mission":null,"orbit_class":"UNKNOWN","rcs_meters":null,"size_class":null,"mass_kg":null,"dimensions":null,"purposes":["comms"],"wikipedia_slug":null,"has_3d_model":false,"image_url":null,"decayed_at":null,"tle_current":{"epoch":"2026-09-20T01:40:35.266368Z","epoch_age_seconds":152033,"freshness":"FRESH","line1":"1 56538U 23065AM  26263.06985262 -.00000118  00000+0  52234-5 0  9991","line2":"2 56538  43.0016 180.3424 0000784 235.3449 124.7329 15.27578098186492","mean_motion":15.27578098,"eccentricity":7.84e-5,"inclination_deg":43.0016,"raan_deg":180.3424,"arg_perigee_deg":235.3449,"mean_anomaly_deg":124.7329,"bstar":5.2234e-6,"rev_number":18649,"period_min":94.266866085952,"perigee_km":482.51687388136,"apogee_km":483.59270875424,"semimajor_km":6861.1917913178,"source":"CELESTRAK","updated_at":"2026-09-21T09:00:33.476304Z"}}}